StationID,Date,MaxTemp,MinTemp,Precipitation,Snowfall,SnowDepth
"CA001025254","1979-06-01",73.40,37.40,0.00,0.00,
"CA001025254","1979-06-02",79.70,48.20,0.00,0.00,
"CA001025254","1979-06-03",70.70,49.10,5.00,0.00,
"CA001025254","1979-06-04",59.00,49.10,241.00,0.00,
"CA001025254","1979-06-05",59.00,42.80,4.00,0.00,
"CA001025254","1979-06-06",64.40,41.00,0.00,0.00,
"CA001025254","1979-06-07",68.90,37.40,0.00,0.00,
"CA001025254","1979-06-08",75.20,41.90,0.00,0.00,
"CA001025254","1979-06-09",72.50,45.50,0.00,0.00,
"CA001025254","1979-06-10",72.50,42.80,0.00,0.00,
"CA001025254","1979-06-11",60.80,40.10,0.00,0.00,
"CA001025254","1979-06-12",64.40,42.80,36.00,0.00,
"CA001025254","1979-06-13",60.80,37.40,0.00,0.00,
"CA001025254","1979-06-14",66.20,39.20,2.00,0.00,
"CA001025254","1979-06-15",57.20,45.50,46.00,0.00,
"CA001025254","1979-06-16",58.10,44.60,0.00,0.00,
"CA001025254","1979-06-17",77.00,43.70,0.00,0.00,
"CA001025254","1979-06-18",67.10,48.20,3.00,0.00,
"CA001025254","1979-06-19",62.60,48.20,0.00,0.00,
"CA001025254","1979-06-20",61.70,53.60,0.00,0.00,
"CA001025254","1979-06-21",64.40,44.60,0.00,0.00,
"CA001025254","1979-06-22",59.00,46.40,8.00,0.00,
"CA001025254","1979-06-23",64.40,47.30,0.00,0.00,
"CA001025254","1979-06-24",75.20,41.90,0.00,0.00,
"CA001025254","1979-06-25",79.70,45.50,0.00,0.00,
"CA001025254","1979-06-26",82.40,47.30,0.00,0.00,
"CA001025254","1979-06-27",80.60,60.80,0.00,0.00,
"CA001025254","1979-06-28",81.50,51.80,0.00,0.00,
"CA001025254","1979-06-29",69.80,53.60,42.00,0.00,
"CA001025254","1979-06-30",66.20,50.00,36.00,0.00,
"CA001025254","1979-07-01",61.70,42.80,16.00,0.00,
"CA001025254","1979-07-02",59.00,49.10,12.00,0.00,
"CA001025254","1979-07-03",64.40,41.90,8.00,0.00,
"CA001025254","1979-07-04",68.00,49.10,8.00,0.00,
"CA001025254","1979-07-05",69.80,50.90,0.00,0.00,
"CA001025254","1979-07-06",76.10,45.50,0.00,0.00,
"CA001025254","1979-07-07",61.70,51.80,572.00,0.00,
"CA001025254","1979-07-08",61.70,52.70,152.00,0.00,
"CA001025254","1979-07-09",67.10,50.90,100.00,0.00,
"CA001025254","1979-07-10",61.70,52.70,220.00,0.00,
"CA001025254","1979-07-11",59.90,52.70,144.00,0.00,
"CA001025254","1979-07-12",65.30,47.30,0.00,0.00,
"CA001025254","1979-07-13",66.20,43.70,0.00,0.00,
"CA001025254","1979-07-14",78.80,45.50,0.00,0.00,
"CA001025254","1979-07-15",85.10,48.20,0.00,0.00,
"CA001025254","1979-07-16",93.20,52.70,0.00,0.00,
"CA001025254","1979-07-17",94.10,55.40,0.00,0.00,
"CA001025254","1979-07-18",91.40,,0.00,0.00,
"CA001025254","1979-07-19",89.60,57.20,0.00,0.00,
"CA001025254","1979-07-20",86.90,57.20,0.00,0.00,
"CA001025254","1979-07-21",75.20,51.80,0.00,0.00,
"CA001025254","1979-07-22",80.60,50.90,0.00,0.00,
"CA001025254","1979-07-23",80.60,60.80,0.00,0.00,
"CA001025254","1979-07-24",82.40,55.40,0.00,0.00,
"CA001025254","1979-07-25",85.10,53.60,0.00,0.00,
"CA001025254","1979-07-26",86.00,55.40,0.00,0.00,
"CA001025254","1979-07-27",81.50,54.50,0.00,0.00,
"CA001025254","1979-07-28",82.40,50.00,0.00,0.00,
"CA001025254","1979-07-29",73.40,53.60,16.00,0.00,
"CA001025254","1979-07-30",73.40,58.10,0.00,0.00,
"CA001025254","1979-07-31",76.10,59.90,0.00,0.00,
"CA001025254","1979-08-01",77.00,53.60,0.00,0.00,
"CA001025254","1979-08-02",73.40,55.40,0.00,0.00,
"CA001025254","1979-08-03",71.60,54.50,12.00,0.00,
"CA001025254","1979-08-04",75.20,49.10,0.00,0.00,
"CA001025254","1979-08-05",78.80,50.90,0.00,0.00,
"CA001025254","1979-08-06",73.40,50.00,0.00,0.00,
"CA001025254","1979-08-07",81.50,48.20,0.00,0.00,
"CA001025254","1979-08-08",85.10,52.70,0.00,0.00,
"CA001025254","1979-08-09",79.70,52.70,0.00,0.00,
"CA001025254","1979-08-10",83.30,50.90,0.00,0.00,
"CA001025254","1979-08-11",87.80,52.70,0.00,0.00,
"CA001025254","1979-08-12",86.00,52.70,0.00,0.00,
"CA001025254","1979-08-13",86.00,52.70,0.00,0.00,
"CA001025254","1979-08-14",77.90,59.90,12.00,0.00,
"CA001025254","1979-08-15",68.90,56.30,2.00,0.00,
"CA001025254","1979-08-16",76.10,59.00,52.00,0.00,
"CA001025254","1979-08-17",69.80,56.30,46.00,0.00,
"CA001025254","1979-08-18",60.80,51.80,92.00,0.00,
"CA001025254","1979-08-19",69.80,55.40,27.00,0.00,
"CA001025254","1979-08-20",77.90,54.50,0.00,0.00,
"CA001025254","1979-08-21",79.70,53.60,210.00,0.00,
"CA001025254","1979-08-22",72.50,54.50,0.00,0.00,
"CA001025254","1979-08-23",72.50,51.80,0.00,0.00,
"CA001025254","1979-08-24",72.50,50.90,0.00,0.00,
"CA001025254","1979-08-25",80.60,51.80,8.00,0.00,
"CA001025254","1979-08-26",80.60,53.60,18.00,0.00,
"CA001025254","1979-08-27",77.00,53.60,0.00,0.00,
"CA001025254","1979-08-28",74.30,55.40,0.00,0.00,
"CA001025254","1979-08-29",75.20,53.60,0.00,0.00,
"CA001025254","1979-08-30",70.70,58.10,0.00,0.00,
"CA001025254","1979-08-31",68.00,49.10,0.00,0.00,
"CA001025254","1979-09-01",59.90,54.50,420.00,0.00,
"CA001025254","1979-09-02",58.10,51.80,490.00,0.00,
"CA001025254","1979-09-03",58.10,50.90,465.00,0.00,
"CA001025254","1979-09-04",58.10,49.10,370.00,0.00,
"CA001025254","1979-09-05",59.00,48.20,192.00,0.00,
"CA001025254","1979-09-06",58.10,45.50,68.00,0.00,
"CA001025254","1979-09-07",56.30,50.90,750.00,0.00,
"CA001025254","1979-09-08",57.20,50.90,365.00,0.00,
"CA001025254","1979-09-09",61.70,49.10,13.00,0.00,
"CA001025254","1979-09-10",67.10,41.90,0.00,0.00,
"CA001025254","1979-09-11",,43.70,0.00,0.00,
"CA001025254","1979-09-12",71.60,46.40,0.00,0.00,
"CA001025254","1979-09-13",78.80,46.40,0.00,0.00,
"CA001025254","1979-09-14",78.80,49.10,0.00,0.00,
"CA001025254","1979-09-15",68.90,51.80,0.00,0.00,
"CA001025254","1979-09-16",73.40,46.40,0.00,0.00,
"CA001025254","1979-09-17",76.10,47.30,0.00,0.00,
"CA001025254","1979-09-18",78.80,47.30,0.00,0.00,
"CA001025254","1979-09-19",71.60,49.10,0.00,0.00,
"CA001025254","1979-09-20",66.20,50.90,20.00,0.00,
"CA001025254","1979-09-21",64.40,44.60,0.00,0.00,
"CA001025254","1979-09-22",64.40,49.10,0.00,0.00,
"CA001025254","1979-09-23",64.40,47.30,0.00,0.00,
"CA001025254","1979-09-24",70.70,42.80,0.00,0.00,
"CA001025254","1979-09-25",73.40,44.60,0.00,0.00,
"CA001025254","1979-09-26",63.50,54.50,105.00,0.00,
"CA001025254","1979-09-27",55.40,48.20,310.00,0.00,
"CA001025254","1979-09-28",59.90,40.10,50.00,0.00,
"CA001025254","1979-09-29",57.20,44.60,95.00,0.00,
"CA001025254","1979-09-30",57.20,47.30,125.00,0.00,
"CA001025254","1979-10-01",66.20,46.40,18.00,0.00,
"CA001025254","1979-10-02",62.60,41.00,0.00,0.00,
"CA001025254","1979-10-03",64.40,39.20,0.00,0.00,
"CA001025254","1979-10-04",65.30,42.80,0.00,0.00,
"CA001025254","1979-10-05",67.10,43.70,0.00,0.00,
"CA001025254","1979-10-06",68.00,44.60,0.00,0.00,
"CA001025254","1979-10-07",66.20,43.70,0.00,0.00,
"CA001025254","1979-10-08",64.40,41.90,0.00,0.00,
"CA001025254","1979-10-09",68.00,42.80,0.00,0.00,
"CA001025254","1979-10-10",69.80,45.50,0.00,0.00,
"CA001025254","1979-10-11",68.00,42.80,0.00,0.00,
"CA001025254","1979-10-12",68.00,43.70,0.00,0.00,
"CA001025254","1979-10-13",56.30,48.20,36.00,0.00,
"CA001025254","1979-10-14",53.60,48.20,16.00,0.00,
"CA001025254","1979-10-15",54.50,44.60,80.00,0.00,
"CA001025254","1979-10-16",54.50,44.60,145.00,0.00,
"CA001025254","1979-10-17",53.60,37.40,200.00,0.00,
"CA001025254","1979-10-18",49.10,39.20,116.00,0.00,
"CA001025254","1979-10-19",50.90,37.40,8.00,0.00,
"CA001025254","1979-10-20",51.80,40.10,0.00,0.00,
"CA001025254","1979-10-21",50.90,32.90,270.00,0.00,
"CA001025254","1979-10-22",45.50,39.20,384.00,0.00,
"CA001025254","1979-10-23",50.00,41.90,62.00,0.00,
"CA001025254","1979-10-24",47.30,44.60,400.00,0.00,
"CA001025254","1979-10-25",49.10,42.80,1065.00,0.00,
"CA001025254","1979-10-26",51.80,42.80,384.00,0.00,
"CA001025254","1979-10-27",45.50,40.10,226.00,0.00,
"CA001025254","1979-10-28",51.80,37.40,0.00,0.00,
"CA001025254","1979-10-29",48.20,32.00,20.00,0.00,
"CA001025254","1979-10-30",46.40,35.60,0.00,0.00,
"CA001025254","1979-10-31",43.70,31.10,0.00,0.00,
"CA001025254","1979-11-01",43.70,30.20,35.00,0.00,
"CA001025254","1979-11-02",42.80,35.60,160.00,0.00,
"CA001025254","1979-11-03",44.60,41.00,54.00,0.00,
"CA001025254","1979-11-04",43.70,41.00,94.00,0.00,
"CA001025254","1979-11-05",46.40,41.00,7.00,0.00,
"CA001025254","1979-11-06",45.50,40.10,0.00,0.00,
"CA001025254","1979-11-07",43.70,32.00,0.00,0.00,
"CA001025254","1979-11-08",41.90,30.20,0.00,0.00,
"CA001025254","1979-11-09",41.90,31.10,0.00,0.00,
"CA001025254","1979-11-10",41.00,32.90,0.00,0.00,
"CA001025254","1979-11-11",41.90,35.60,0.00,0.00,
"CA001025254","1979-11-12",38.30,28.40,0.00,0.00,
"CA001025254","1979-11-13",36.50,28.40,0.00,0.00,
"CA001025254","1979-11-14",35.60,32.00,0.00,0.00,
"CA001025254","1979-11-15",38.30,28.40,28.00,0.00,
"CA001025254","1979-11-16",43.70,36.50,282.00,0.00,
"CA001025254","1979-11-17",40.10,32.90,64.00,0.00,
"CA001025254","1979-11-18",36.50,30.20,52.00,0.00,
"CA001025254","1979-11-19",40.10,31.10,38.00,0.00,
"CA001025254","1979-11-20",38.30,32.90,0.00,0.00,
"CA001025254","1979-11-21",,30.20,500.00,0.00,
"CA001025254","1979-11-22",44.60,32.00,204.00,0.00,
"CA001025254","1979-11-23",38.30,32.90,92.00,0.00,
"CA001025254","1979-11-24",37.40,32.00,38.00,0.00,
"CA001025254","1979-11-25",33.80,31.10,10.00,0.00,
"CA001025254","1979-11-26",28.40,25.70,0.00,0.00,
"CA001025254","1979-11-27",32.90,23.00,0.00,0.00,
"CA001025254","1979-11-28",32.90,30.20,0.00,0.00,
"CA001025254","1979-11-29",34.70,31.10,167.00,5.00,
"CA001025254","1979-11-30",33.80,31.10,73.00,5.00,
"CA001025254","1979-12-01",34.70,32.00,69.00,5.00,
"CA001025254","1979-12-02",35.60,32.00,64.00,0.00,
"CA001025254","1979-12-03",33.80,32.00,273.00,130.00,
"CA001025254","1979-12-04",35.60,31.10,8.00,0.00,
"CA001025254","1979-12-05",39.20,32.90,2.00,0.00,
"CA001025254","1979-12-06",40.10,34.70,10.00,0.00,
"CA001025254","1979-12-07",41.00,32.90,48.00,0.00,
"CA001025254","1979-12-08",43.70,36.50,156.00,0.00,
"CA001025254","1979-12-09",42.80,32.00,27.00,5.00,
"CA001025254","1979-12-10",37.40,25.70,155.00,0.00,
"CA001025254","1979-12-11",37.40,26.60,0.00,0.00,
"CA001025254","1979-12-12",33.80,29.30,362.00,30.00,
"CA001025254","1979-12-13",38.30,32.00,450.00,0.00,
"CA001025254","1979-12-14",37.40,31.10,0.00,0.00,
"CA001025254","1979-12-15",33.80,28.40,0.00,0.00,
"CA001025254","1979-12-16",34.70,26.60,958.00,100.00,
"CA001025254","1979-12-17",39.20,28.40,496.00,0.00,
"CA001025254","1979-12-18",46.40,32.90,570.00,0.00,
"CA001025254","1979-12-19",44.60,35.60,334.00,0.00,
"CA001025254","1979-12-20",41.00,37.40,440.00,0.00,
"CA001025254","1979-12-21",39.20,30.20,0.00,0.00,
"CA001025254","1979-12-22",34.70,28.40,0.00,0.00,
"CA001025254","1979-12-23",34.70,30.20,280.00,280.00,
"CA001025254","1979-12-24",34.70,32.90,300.00,0.00,
"CA001025254","1979-12-25",37.40,32.00,410.00,0.00,
"CA001025254","1979-12-26",39.20,32.00,550.00,0.00,
"CA001025254","1979-12-27",41.00,32.00,60.00,0.00,
"CA001025254","1979-12-28",42.80,32.00,170.00,0.00,
"CA001025254","1979-12-29",33.80,29.30,20.00,0.00,
"CA001025254","1979-12-30",41.00,32.00,156.00,52.00,
"CA001025254","1979-12-31",33.80,32.00,192.00,0.00,
"CA001025254","1980-01-01",38.30,32.00,292.00,0.00,
"CA001025254","1980-01-02",34.70,32.00,140.00,0.00,
"CA001025254","1980-01-03",32.00,29.30,42.00,0.00,
"CA001025254","1980-01-04",32.00,26.60,0.00,0.00,
"CA001025254","1980-01-05",28.40,19.40,0.00,0.00,
"CA001025254","1980-01-06",26.60,19.40,12.00,12.00,
"CA001025254","1980-01-07",29.30,21.20,110.00,110.00,
"CA001025254","1980-01-08",28.40,24.80,178.00,178.00,
"CA001025254","1980-01-09",26.60,19.40,108.00,108.00,
"CA001025254","1980-01-10",29.30,9.50,370.00,370.00,
"CA001025254","1980-01-11",35.60,20.30,200.00,150.00,
"CA001025254","1980-01-12",37.40,30.20,40.00,20.00,
"CA001025254","1980-01-13",35.60,21.20,130.00,130.00,
"CA001025254","1980-01-14",34.70,31.10,170.00,50.00,
"CA001025254","1980-01-15",33.80,32.00,380.00,10.00,
"CA001025254","1980-01-16",34.70,32.00,0.00,0.00,
"CA001025254","1980-01-17",24.80,22.10,0.00,0.00,
"CA001025254","1980-01-18",23.00,14.90,0.00,0.00,
"CA001025254","1980-01-19",29.30,15.80,0.00,0.00,
"CA001025254","1980-01-20",33.80,24.80,26.00,0.00,
"CA001025254","1980-01-21",35.60,31.10,20.00,0.00,
"CA001025254","1980-01-22",34.70,31.10,0.00,0.00,
"CA001025254","1980-01-23",36.50,30.20,0.00,0.00,
"CA001025254","1980-01-24",33.80,30.20,0.00,0.00,
"CA001025254","1980-01-25",25.70,20.30,0.00,0.00,
"CA001025254","1980-01-26",30.20,13.10,0.00,0.00,
"CA001025254","1980-01-27",20.30,6.80,0.00,0.00,
"CA001025254","1980-01-28",19.40,10.40,0.00,0.00,
"CA001025254","1980-01-29",14.90,2.30,0.00,0.00,
"CA001025254","1980-01-30",23.00,13.10,30.00,30.00,
"CA001025254","1980-01-31",28.40,18.50,450.00,450.00,
"CA001025254","1980-02-01",34.70,25.70,260.00,0.00,
"CA001025254","1980-02-02",35.60,32.00,270.00,0.00,
"CA001025254","1980-02-03",34.70,32.00,192.00,0.00,
"CA001025254","1980-02-04",36.50,36.50,0.00,0.00,
"CA001025254","1980-02-05",35.60,32.00,110.00,0.00,
"CA001025254","1980-02-06",39.20,32.00,10.00,0.00,
"CA001025254","1980-02-07",38.30,30.20,5.00,0.00,
"CA001025254","1980-02-08",38.30,32.00,0.00,0.00,
"CA001025254","1980-02-09",39.20,29.30,0.00,0.00,
"CA001025254","1980-02-10",39.20,26.60,0.00,0.00,
"CA001025254","1980-02-11",39.20,24.80,0.00,0.00,
"CA001025254","1980-02-12",39.20,23.90,0.00,0.00,
"CA001025254","1980-02-13",36.50,20.30,0.00,0.00,
"CA001025254","1980-02-14",34.70,16.70,0.00,0.00,
"CA001025254","1980-02-15",33.80,16.70,40.00,40.00,
"CA001025254","1980-02-16",31.10,19.40,27.00,27.00,
"CA001025254","1980-02-17",37.40,27.50,100.00,0.00,
"CA001025254","1980-02-18",35.60,32.00,160.00,0.00,
"CA001025254","1980-02-19",40.10,32.90,0.00,0.00,
"CA001025254","1980-02-20",41.90,32.00,0.00,0.00,
"CA001025254","1980-02-21",41.00,25.70,0.00,0.00,
"CA001025254","1980-02-22",43.70,23.00,0.00,0.00,
"CA001025254","1980-02-23",43.70,23.00,62.00,0.00,
"CA001025254","1980-02-24",39.20,30.20,250.00,0.00,
"CA001025254","1980-02-25",37.40,32.90,640.00,0.00,
"CA001025254","1980-02-26",40.10,35.60,170.00,0.00,
"CA001025254","1980-02-27",41.00,33.80,380.00,0.00,
"CA001025254","1980-02-28",39.20,33.80,290.00,0.00,
"CA001025254","1980-02-29",41.00,32.90,106.00,0.00,
"CA001025254","1980-03-01",41.00,33.80,64.00,0.00,
"CA001025254","1980-03-02",46.40,33.80,4.00,0.00,
"CA001025254","1980-03-03",51.80,33.80,0.00,0.00,
"CA001025254","1980-03-04",42.80,30.20,8.00,0.00,
"CA001025254","1980-03-05",41.00,32.00,0.00,0.00,
"CA001025254","1980-03-06",46.40,24.80,0.00,0.00,
"CA001025254","1980-03-07",47.30,25.70,0.00,0.00,
"CA001025254","1980-03-08",48.20,28.40,0.00,0.00,
"CA001025254","1980-03-09",44.60,33.80,124.00,0.00,
"CA001025254","1980-03-10",41.00,34.70,70.00,10.00,
"CA001025254","1980-03-11",43.70,23.00,45.00,45.00,
"CA001025254","1980-03-12",39.20,29.30,26.00,26.00,
"CA001025254","1980-03-13",38.30,32.00,118.00,118.00,
"CA001025254","1980-03-14",34.70,23.90,110.00,110.00,
"CA001025254","1980-03-15",42.80,23.90,0.00,0.00,
"CA001025254","1980-03-16",37.40,31.10,40.00,0.00,
"CA001025254","1980-03-17",45.50,32.00,32.00,0.00,
"CA001025254","1980-03-18",41.90,32.90,0.00,0.00,
"CA001025254","1980-03-19",42.80,31.10,40.00,0.00,
"CA001025254","1980-03-20",45.50,33.80,3.00,0.00,
"CA001025254","1980-03-21",55.40,29.30,0.00,0.00,
"CA001025254","1980-03-22",46.40,30.20,20.00,0.00,
"CA001025254","1980-03-23",47.30,29.30,0.00,0.00,
"CA001025254","1980-03-24",45.50,24.80,0.00,0.00,
"CA001025254","1980-03-25",41.90,32.00,20.00,0.00,
"CA001025254","1980-03-26",41.00,32.90,20.00,0.00,
"CA001025254","1980-03-27",39.20,27.50,35.00,0.00,
"CA001025254","1980-03-28",50.00,30.20,86.00,0.00,
"CA001025254","1980-03-29",42.80,32.00,0.00,0.00,
"CA001025254","1980-03-30",50.90,26.60,30.00,0.00,
"CA001025254","1980-03-31",50.90,32.90,0.00,0.00,
"CA001025254","1980-04-01",51.80,27.50,0.00,0.00,
"CA001025254","1980-04-02",60.80,28.40,0.00,0.00,
"CA001025254","1980-04-03",59.00,28.40,31.00,0.00,
"CA001025254","1980-04-04",51.80,34.70,68.00,0.00,
"CA001025254","1980-04-05",44.60,35.60,290.00,40.00,
"CA001025254","1980-04-06",40.10,32.00,210.00,50.00,
"CA001025254","1980-04-07",43.70,29.30,110.00,10.00,
"CA001025254","1980-04-08",47.30,32.00,270.00,0.00,
"CA001025254","1980-04-09",41.90,33.80,163.00,0.00,
"CA001025254","1980-04-10",52.70,33.80,0.00,0.00,
"CA001025254","1980-04-11",54.50,30.20,0.00,0.00,
"CA001025254","1980-04-12",62.60,33.80,0.00,0.00,
"CA001025254","1980-04-13",50.90,37.40,80.00,0.00,
"CA001025254","1980-04-14",49.10,38.30,49.00,0.00,
"CA001025254","1980-04-15",50.90,36.50,7.00,0.00,
"CA001025254","1980-04-16",57.20,33.80,92.00,0.00,
"CA001025254","1980-04-17",50.90,39.20,96.00,0.00,
"CA001025254","1980-04-18",48.20,38.30,709.00,0.00,
"CA001025254","1980-04-19",47.30,39.20,110.00,0.00,
"CA001025254","1980-04-20",60.80,35.60,5.00,0.00,
"CA001025254","1980-04-21",62.60,28.40,0.00,0.00,
"CA001025254","1980-04-22",60.80,32.00,10.00,0.00,
"CA001025254","1980-04-23",54.50,34.70,52.00,0.00,
"CA001025254","1980-04-24",50.90,34.70,0.00,0.00,
"CA001025254","1980-04-25",54.50,36.50,0.00,0.00,
"CA001025254","1980-04-26",65.30,35.60,23.00,0.00,
"CA001025254","1980-04-27",64.40,41.00,32.00,0.00,
"CA001025254","1980-04-28",60.80,34.70,0.00,0.00,
"CA001025254","1980-04-29",59.90,35.60,0.00,0.00,
"CA001025254","1980-04-30",59.90,35.60,0.00,0.00,
"CA001025254","1980-05-01",68.00,39.20,0.00,0.00,
"CA001025254","1980-05-02",62.60,37.40,0.00,0.00,
"CA001025254","1980-05-03",66.20,37.40,0.00,0.00,
"CA001025254","1980-05-04",73.40,37.40,0.00,0.00,
"CA001025254","1980-05-05",66.20,43.70,24.00,0.00,
"CA001025254","1980-05-06",60.80,42.80,0.00,0.00,
"CA001025254","1980-05-07",60.80,38.30,30.00,0.00,
"CA001025254","1980-05-08",59.90,41.00,25.00,0.00,
"CA001025254","1980-05-09",59.90,42.80,0.00,0.00,
"CA001025254","1980-05-10",77.00,41.00,0.00,0.00,
"CA001025254","1980-05-11",78.80,43.70,0.00,0.00,
"CA001025254","1980-05-12",64.40,42.80,0.00,0.00,
"CA001025254","1980-05-13",60.80,40.10,6.00,0.00,
"CA001025254","1980-05-14",58.10,38.30,0.00,0.00,
"CA001025254","1980-05-15",61.70,38.30,0.00,0.00,
"CA001025254","1980-05-16",64.40,49.10,0.00,0.00,
"CA001025254","1980-05-17",71.60,44.60,0.00,0.00,
"CA001025254","1980-05-18",68.90,48.20,15.00,0.00,
"CA001025254","1980-05-19",49.10,44.60,130.00,0.00,
"CA001025254","1980-05-20",61.70,42.80,0.00,0.00,
"CA001025254","1980-05-21",57.20,46.40,12.00,0.00,
"CA001025254","1980-05-22",54.50,39.20,136.00,0.00,
"CA001025254","1980-05-23",55.40,34.70,0.00,0.00,
"CA001025254","1980-05-24",67.10,35.60,0.00,0.00,
"CA001025254","1980-05-25",64.40,47.30,0.00,0.00,
"CA001025254","1980-05-26",68.00,40.10,94.00,0.00,
"CA001025254","1980-05-27",54.50,42.80,45.00,0.00,
"CA001025254","1980-05-28",62.60,46.40,0.00,0.00,
"CA001025254","1980-05-29",68.00,43.70,0.00,0.00,
"CA001025254","1980-05-30",74.30,41.00,0.00,0.00,
"CA001025254","1980-05-31",66.20,47.30,0.00,0.00,
"CA001025254","1980-06-01",63.50,42.80,0.00,0.00,
"CA001025254","1980-06-02",61.70,41.00,0.00,0.00,
"CA001025254","1980-06-03",56.30,41.00,0.00,0.00,
"CA001025254","1980-06-04",62.60,44.60,0.00,0.00,
"CA001025254","1980-06-05",68.00,45.50,0.00,0.00,
"CA001025254","1980-06-06",67.10,49.10,0.00,0.00,
"CA001025254","1980-06-07",61.70,45.50,92.00,0.00,
"CA001025254","1980-06-08",59.00,46.40,104.00,0.00,
"CA001025254","1980-06-09",57.20,45.50,34.00,0.00,
"CA001025254","1980-06-10",54.50,43.70,70.00,0.00,
"CA001025254","1980-06-11",67.10,43.70,0.00,0.00,
"CA001025254","1980-06-12",74.30,42.80,0.00,0.00,
"CA001025254","1980-06-13",76.10,46.40,0.00,0.00,
"CA001025254","1980-06-14",77.00,49.10,0.00,0.00,
"CA001025254","1980-06-15",71.60,53.60,0.00,0.00,
"CA001025254","1980-06-16",67.10,51.80,50.00,0.00,
"CA001025254","1980-06-17",64.40,54.50,0.00,0.00,
"CA001025254","1980-06-18",70.70,45.50,0.00,0.00,
"CA001025254","1980-06-19",74.30,45.50,0.00,0.00,
"CA001025254","1980-06-20",74.30,50.00,0.00,0.00,
"CA001025254","1980-06-21",70.70,47.30,0.00,0.00,
"CA001025254","1980-06-22",62.60,51.80,0.00,0.00,
"CA001025254","1980-06-23",59.90,42.80,20.00,0.00,
"CA001025254","1980-06-24",60.80,49.10,133.00,0.00,
"CA001025254","1980-06-25",53.60,48.20,330.00,0.00,
"CA001025254","1980-06-26",61.70,45.50,20.00,0.00,
"CA001025254","1980-06-27",64.40,48.20,0.00,0.00,
"CA001025254","1980-06-28",66.20,47.30,20.00,0.00,
"CA001025254","1980-06-29",68.00,41.00,0.00,0.00,
"CA001025254","1980-06-30",73.40,48.20,0.00,0.00,
"CA001025254","1980-07-01",76.10,48.20,10.00,0.00,
"CA001025254","1980-07-02",64.40,49.10,420.00,0.00,
"CA001025254","1980-07-03",64.40,50.00,30.00,0.00,
"CA001025254","1980-07-04",59.00,46.40,65.00,0.00,
"CA001025254","1980-07-05",57.20,48.20,10.00,0.00,
"CA001025254","1980-07-06",62.60,46.40,0.00,0.00,
"CA001025254","1980-07-07",72.50,48.20,0.00,0.00,
"CA001025254","1980-07-08",68.00,49.10,0.00,0.00,
"CA001025254","1980-07-09",75.20,48.20,3.00,0.00,
"CA001025254","1980-07-10",62.60,50.90,83.00,0.00,
"CA001025254","1980-07-11",75.20,50.90,0.00,0.00,
"CA001025254","1980-07-12",77.00,48.20,0.00,0.00,
"CA001025254","1980-07-13",66.20,53.60,20.00,0.00,
"CA001025254","1980-07-14",69.80,50.90,9.00,0.00,
"CA001025254","1980-07-15",66.20,50.00,3.00,0.00,
"CA001025254","1980-07-16",69.80,53.60,0.00,0.00,
"CA001025254","1980-07-17",76.10,48.20,0.00,0.00,
"CA001025254","1980-07-18",77.00,50.00,38.00,0.00,
"CA001025254","1980-07-19",71.60,57.20,4.00,0.00,
"CA001025254","1980-07-20",76.10,59.00,0.00,0.00,
"CA001025254","1980-07-21",88.70,54.50,0.00,0.00,
"CA001025254","1980-07-22",82.40,58.10,0.00,0.00,
"CA001025254","1980-07-23",75.20,54.50,0.00,0.00,
"CA001025254","1980-07-24",79.70,50.90,0.00,0.00,
"CA001025254","1980-07-25",80.60,52.70,0.00,0.00,
"CA001025254","1980-07-26",84.20,53.60,0.00,0.00,
"CA001025254","1980-07-27",84.20,54.50,0.00,0.00,
"CA001025254","1980-07-28",80.60,50.90,0.00,0.00,
"CA001025254","1980-07-29",77.90,49.10,0.00,0.00,
"CA001025254","1980-07-30",80.60,50.00,0.00,0.00,
"CA001025254","1980-07-31",77.90,51.80,0.00,0.00,
"CA001025254","1980-08-01",69.80,59.00,,0.00,0.00
"CA001025254","1980-08-02",70.70,48.20,,0.00,0.00
"CA001025254","1980-08-03",75.20,46.40,0.00,0.00,0.00
"CA001025254","1980-08-04",76.10,49.10,0.00,0.00,0.00
"CA001025254","1980-08-05",71.60,46.40,0.00,0.00,0.00
"CA001025254","1980-08-06",71.60,48.20,0.00,0.00,0.00
"CA001025254","1980-08-07",77.00,46.40,0.00,0.00,0.00
"CA001025254","1980-08-08",85.10,48.20,0.00,0.00,0.00
"CA001025254","1980-08-09",86.90,51.80,0.00,0.00,0.00
"CA001025254","1980-08-10",89.60,55.40,0.00,0.00,0.00
"CA001025254","1980-08-11",86.00,57.20,0.00,0.00,0.00
"CA001025254","1980-08-12",83.30,57.20,0.00,0.00,0.00
"CA001025254","1980-08-13",77.90,58.10,0.00,0.00,0.00
"CA001025254","1980-08-14",71.60,57.20,2.00,0.00,0.00
"CA001025254","1980-08-15",71.60,55.40,0.00,0.00,0.00
"CA001025254","1980-08-16",77.00,51.80,0.00,0.00,0.00
"CA001025254","1980-08-17",68.00,57.20,14.00,0.00,0.00
"CA001025254","1980-08-18",76.10,44.60,0.00,0.00,0.00
"CA001025254","1980-08-19",79.70,49.10,4.00,0.00,0.00
"CA001025254","1980-08-20",73.40,44.60,0.00,0.00,0.00
"CA001025254","1980-08-21",74.30,47.30,0.00,0.00,0.00
"CA001025254","1980-08-22",62.60,48.20,0.00,0.00,0.00
"CA001025254","1980-08-23",68.90,53.60,0.00,0.00,0.00
"CA001025254","1980-08-24",75.20,46.40,0.00,0.00,0.00
"CA001025254","1980-08-25",73.40,46.40,38.00,0.00,0.00
"CA001025254","1980-08-26",64.40,53.60,33.00,0.00,0.00
"CA001025254","1980-08-27",66.20,51.80,5.00,0.00,0.00
"CA001025254","1980-08-28",68.00,44.60,0.00,0.00,0.00
"CA001025254","1980-08-29",68.90,41.00,0.00,0.00,0.00
"CA001025254","1980-08-30",67.10,49.10,0.00,0.00,0.00
"CA001025254","1980-08-31",68.00,50.90,142.00,0.00,0.00
"CA001025254","1980-09-01",62.60,51.80,36.00,0.00,
"CA001025254","1980-09-02",60.80,46.40,0.00,0.00,
"CA001025254","1980-09-03",57.20,48.20,42.00,0.00,